Weather History for KBUR - June, 2013

Change the Weather History Date:

Friday, June 21, 2013

  Actual Average Record
Temperature  
Mean Temperature 74 °F 71 °F  
Max Temperature 84 °F 82 °F 108 °F (1973)
Min Temperature 63 °F 59 °F 50 °F (1943)
Degree Days  
Heating Degree Days 0 0  
Month to date heating degree days 0 11  
Since 1 June heating degree days 0 11  
Since 1 July heating degree days 1105 1567  
Cooling Degree Days 9 6  
Month to date cooling degree days 157 87  
Year to date cooling degree days 486 211  
Since 1 June cooling degree days 157 87  
Growing Degree Days 24 (Base 50)    
Moisture  
Dew Point 52 °F    
Average Humidity 49    
Maximum Humidity 70    
Minimum Humidity 28    
Precipitation  
Precipitation 0.00 in 0.00 in 0.06 in (1945)
Month to date precipitation 0.00 0.10  
Year to date precipitation 2.60 12.54  
Since 1 July precipitation 5.40  
Sea Level Pressure  
Sea Level Pressure 29.83 in    
Wind  
Wind Speed 6 mph (SSE)    
Max Wind Speed 13 mph    
Max Gust Speed 18 mph    
Visibility 10 miles    
Events      
T = Trace of Precipitation, MM = Missing Value Source: NWS Daily Summary

Daily Weather History Graph

Daily Weather History Graph

Search for Another Location

Airport or City:

Trip Planner

Search our weather history database for the weather conditions in past years. The results will help you decide how hot, cold, wet, or windy it might be!

Date:

Astronomy

Jun. 21, 2013 Rise Set
Actual Time 5:42 AM PDT 8:08 PM PDT
Civil Twilight 5:12 AM PDT 8:37 PM PDT
Nautical Twilight 4:36 AM PDT 9:13 PM PDT
Astronomical Twilight 3:56 AM PDT 9:53 PM PDT
Moon 6:27 PM PDT (6/21) 3:58 AM PDT (6/21)
Length of Visible Light 15h 25m
Length of Day
14h 26m
Waxing Gibbous, 96% of the Moon is Illuminated
Jun 21
Waxing Gibbous
Jun 23
Full
Jun 29
Last Quarter
Jul 8
New
Jul 15
First Quarter

Hourly Weather History & Observations

Time (PDT) Temp. Heat Index Dew Point Humidity Pressure Visibility Wind Dir Wind Speed Gust Speed Precip Events Conditions
12:53 AM 70.0 °F - 50.0 °F 49% 29.81 in 10.0 mi East 5.8 mph - N/A   Clear
1:53 AM 69.1 °F - 51.1 °F 53% 29.81 in 10.0 mi East 5.8 mph - N/A   Clear
2:53 AM 68.0 °F - 51.1 °F 55% 29.80 in 10.0 mi East 3.5 mph - N/A   Clear
3:53 AM 66.0 °F - 52.0 °F 60% 29.81 in 10.0 mi Calm Calm - N/A   Clear
4:53 AM 64.9 °F - 51.1 °F 61% 29.81 in 10.0 mi Calm Calm - N/A   Clear
5:53 AM 64.0 °F - 50.0 °F 60% 29.82 in 10.0 mi Calm Calm - N/A   Clear
6:53 AM 66.0 °F - 52.0 °F 60% 29.84 in 10.0 mi East 3.5 mph - N/A   Clear
7:53 AM 68.0 °F - 54.0 °F 61% 29.86 in 10.0 mi Calm Calm - N/A   Clear
8:53 AM 70.0 °F - 53.1 °F 55% 29.86 in 10.0 mi Calm Calm - N/A   Clear
9:53 AM 73.0 °F - 54.0 °F 51% 29.87 in 10.0 mi South 4.6 mph - N/A   Clear
10:53 AM 77.0 °F - 53.1 °F 43% 29.87 in 10.0 mi Variable 6.9 mph - N/A   Clear
11:53 AM 80.1 °F - 51.1 °F 36% 29.86 in 10.0 mi South 5.8 mph - N/A   Clear
12:53 PM 82.9 °F 81.9 °F 54.0 °F 37% 29.85 in 10.0 mi South 9.2 mph - N/A   Clear
1:53 PM 84.0 °F 82.6 °F 54.0 °F 35% 29.84 in 10.0 mi SSE 11.5 mph 18.4 mph N/A   Clear
2:53 PM 82.9 °F 81.8 °F 53.1 °F 36% 29.83 in 10.0 mi South 11.5 mph - N/A   Clear
3:53 PM 84.0 °F 82.5 °F 53.1 °F 34% 29.82 in 10.0 mi South 10.4 mph - N/A   Clear
4:53 PM 82.0 °F - 46.9 °F 29% 29.82 in 10.0 mi SSE 12.7 mph - N/A   Clear
5:53 PM 81.0 °F - 46.9 °F 30% 29.81 in 10.0 mi South 9.2 mph - N/A   Clear
6:53 PM 79.0 °F - 51.1 °F 38% 29.81 in 10.0 mi SSE 10.4 mph - N/A   Clear
7:53 PM 75.9 °F - 52.0 °F 43% 29.81 in 10.0 mi South 6.9 mph - N/A   Clear
8:53 PM 75.0 °F - 51.1 °F 43% 29.82 in 10.0 mi South 4.6 mph - N/A   Clear
9:53 PM 73.9 °F - 57.0 °F 55% 29.83 in 10.0 mi SE 5.8 mph - N/A   Clear
10:53 PM 73.0 °F - 57.9 °F 59% 29.82 in 10.0 mi SE 4.6 mph - N/A   Clear
11:53 PM 69.1 °F - 59.0 °F 70% 29.82 in 10.0 mi SSE 5.8 mph - N/A   Clear